TimeCDT,TemperatureF,Dew PointF,Humidity,Sea Level PressureIn,VisibilityMPH,Wind Direction,Wind SpeedMPH,Gust SpeedMPH,PrecipitationIn,Events,Conditions,WindDirDegrees,DateUTC
12:15 AM,45.1,24.8,45,29.97,10.0,WNW,9.2,-,N/A,,Clear,290,2011-10-18 05:15:00
12:35 AM,45.3,24.8,45,29.97,10.0,WNW,9.2,-,N/A,,Clear,300,2011-10-18 05:35:00
12:55 AM,46.2,24.1,42,29.96,10.0,NW,10.4,-,N/A,,Clear,310,2011-10-18 05:55:00
1:15 AM,46.4,23.5,41,29.96,10.0,NW,10.4,-,N/A,,Clear,320,2011-10-18 06:15:00
1:35 AM,45.5,23.7,42,29.95,10.0,NW,10.4,-,N/A,,Clear,320,2011-10-18 06:35:00
1:55 AM,44.2,23.9,45,29.95,10.0,NW,9.2,-,N/A,,Clear,310,2011-10-18 06:55:00
2:15 AM,43.0,23.9,47,29.95,10.0,NW,9.2,-,N/A,,Clear,320,2011-10-18 07:15:00
2:35 AM,41.9,23.9,49,29.95,10.0,NW,10.4,-,N/A,,Clear,310,2011-10-18 07:35:00
2:55 AM,41.2,23.9,50,29.95,10.0,NW,9.2,-,N/A,,Clear,310,2011-10-18 07:55:00
3:15 AM,39.7,23.9,53,29.96,10.0,WNW,10.4,-,N/A,,Clear,300,2011-10-18 08:15:00
3:35 AM,38.5,23.9,56,29.96,10.0,WNW,8.1,-,N/A,,Clear,300,2011-10-18 08:35:00
3:55 AM,37.8,23.9,57,29.97,10.0,WNW,9.2,-,N/A,,Clear,290,2011-10-18 08:55:00
4:15 AM,36.7,23.7,59,29.98,10.0,WNW,8.1,-,N/A,,Clear,290,2011-10-18 09:15:00
4:35 AM,36.3,23.9,61,29.98,10.0,WNW,9.2,-,N/A,,Clear,300,2011-10-18 09:35:00
4:55 AM,36.0,23.9,62,29.98,10.0,NW,10.4,-,N/A,,Clear,310,2011-10-18 09:55:00
5:15 AM,35.8,24.3,63,29.99,10.0,NW,9.2,-,N/A,,Clear,310,2011-10-18 10:15:00
5:35 AM,35.6,24.4,64,29.99,10.0,NW,9.2,-,N/A,,Clear,310,2011-10-18 10:35:00
5:55 AM,34.9,24.4,66,30.01,10.0,NW,9.2,-,N/A,,Clear,310,2011-10-18 10:55:00
6:15 AM,34.0,24.4,68,30.01,10.0,NW,10.4,-,N/A,,Clear,310,2011-10-18 11:15:00
6:35 AM,33.6,24.8,70,30.01,10.0,NW,9.2,16.1,N/A,,Clear,320,2011-10-18 11:35:00
6:55 AM,32.5,24.6,73,30.01,10.0,NW,8.1,-,N/A,,Clear,310,2011-10-18 11:55:00
7:15 AM,32.7,25.0,73,30.02,10.0,NW,9.2,-,N/A,,Clear,310,2011-10-18 12:15:00
7:35 AM,32.7,25.0,73,30.02,10.0,NW,11.5,-,N/A,,Clear,320,2011-10-18 12:35:00
7:55 AM,32.4,25.2,75,30.02,10.0,NW,11.5,-,N/A,,Clear,320,2011-10-18 12:55:00
8:15 AM,32.2,25.5,76,30.02,10.0,NW,10.4,-,N/A,,Clear,320,2011-10-18 13:15:00
8:35 AM,33.4,26.4,75,30.03,10.0,NNW,13.8,20.7,N/A,,Clear,330,2011-10-18 13:35:00
8:55 AM,35.1,26.6,71,30.03,10.0,NNW,15.0,23.0,N/A,,Clear,330,2011-10-18 13:55:00
9:15 AM,36.5,27.3,69,30.04,10.0,NNW,18.4,24.2,N/A,,Mostly Cloudy,330,2011-10-18 14:15:00
9:35 AM,37.8,27.9,67,30.04,10.0,NNW,18.4,24.2,N/A,,Overcast,330,2011-10-18 14:35:00
10:15 AM,40.1,29.7,66,30.04,10.0,NNW,23.0,31.1,N/A,,Overcast,340,2011-10-18 15:15:00
10:35 AM,41.0,29.8,64,30.05,10.0,NNW,20.7,29.9,N/A,,Overcast,340,2011-10-18 15:35:00
10:55 AM,42.1,29.8,62,30.05,10.0,NNW,23.0,28.8,N/A,,Overcast,340,2011-10-18 15:55:00
11:15 AM,42.1,29.5,61,30.06,10.0,North,21.9,31.1,N/A,,Overcast,350,2011-10-18 16:15:00
11:35 AM,42.1,29.3,61,30.06,10.0,NNW,17.3,26.5,N/A,,Overcast,340,2011-10-18 16:35:00
11:55 AM,42.1,29.3,61,30.06,10.0,NNW,20.7,27.6,N/A,,Overcast,340,2011-10-18 16:55:00
12:15 PM,43.2,28.4,56,30.06,10.0,North,23.0,28.8,N/A,,Overcast,350,2011-10-18 17:15:00
12:35 PM,44.4,28.2,53,30.06,10.0,North,21.9,27.6,N/A,,Overcast,350,2011-10-18 17:35:00
1:15 PM,44.6,27.9,52,30.05,10.0,NNW,20.7,28.8,N/A,,Mostly Cloudy,340,2011-10-18 18:15:00
1:35 PM,45.0,27.9,51,30.04,10.0,NNW,18.4,27.6,N/A,,Mostly Cloudy,330,2011-10-18 18:35:00
1:55 PM,46.4,27.1,47,30.04,10.0,NNW,19.6,28.8,N/A,,Scattered Clouds,330,2011-10-18 18:55:00
2:15 PM,47.5,25.7,43,30.04,10.0,North,19.6,25.3,N/A,,Scattered Clouds,350,2011-10-18 19:15:00
2:35 PM,48.4,22.8,37,30.03,10.0,NNW,20.7,27.6,N/A,,Clear,340,2011-10-18 19:35:00
2:55 PM,49.5,20.5,32,30.02,10.0,NNW,21.9,28.8,N/A,,Clear,340,2011-10-18 19:55:00
3:15 PM,50.4,18.9,29,30.02,10.0,North,23.0,31.1,N/A,,Clear,350,2011-10-18 20:15:00
3:35 PM,50.7,18.3,28,30.02,10.0,NNW,20.7,28.8,N/A,,Clear,340,2011-10-18 20:35:00
3:55 PM,50.9,17.2,26,30.02,10.0,NNW,25.3,31.1,N/A,,Clear,340,2011-10-18 20:55:00
4:15 PM,50.4,16.5,26,30.02,10.0,NNW,20.7,31.1,N/A,,Clear,340,2011-10-18 21:15:00
4:35 PM,50.0,15.6,25,30.02,10.0,NNW,21.9,28.8,N/A,,Clear,340,2011-10-18 21:35:00
4:55 PM,49.8,15.6,26,30.02,10.0,NNW,20.7,31.1,N/A,,Clear,340,2011-10-18 21:55:00
5:15 PM,49.1,15.4,26,30.02,10.0,NNW,24.2,27.6,N/A,,Clear,340,2011-10-18 22:15:00
5:35 PM,48.4,14.4,26,30.03,10.0,NNW,21.9,27.6,N/A,,Clear,340,2011-10-18 22:35:00
5:55 PM,47.5,14.4,27,30.04,10.0,North,18.4,24.2,N/A,,Clear,350,2011-10-18 22:55:00
6:15 PM,46.0,14.7,28,30.04,10.0,North,16.1,-,N/A,,Clear,350,2011-10-18 23:15:00
6:35 PM,44.4,15.4,31,30.05,10.0,North,13.8,-,N/A,,Clear,350,2011-10-18 23:35:00
6:55 PM,42.6,15.8,34,30.06,10.0,North,12.7,-,N/A,,Clear,350,2011-10-18 23:55:00
7:15 PM,41.5,16.0,36,30.06,10.0,NNW,11.5,-,N/A,,Clear,340,2011-10-19 00:15:00
7:35 PM,40.5,16.7,38,30.06,10.0,NNW,10.4,-,N/A,,Clear,340,2011-10-19 00:35:00
7:55 PM,39.0,17.2,41,30.07,10.0,North,8.1,-,N/A,,Clear,350,2011-10-19 00:55:00
8:15 PM,37.0,17.4,45,30.07,10.0,North,9.2,-,N/A,,Clear,350,2011-10-19 01:15:00
8:35 PM,36.3,17.6,47,30.07,10.0,North,10.4,-,N/A,,Clear,350,2011-10-19 01:35:00
8:55 PM,36.0,17.6,47,30.07,10.0,NNW,10.4,-,N/A,,Clear,340,2011-10-19 01:55:00
9:15 PM,36.0,17.6,47,30.07,10.0,NNW,10.4,-,N/A,,Clear,340,2011-10-19 02:15:00
9:55 PM,36.9,18.0,46,30.07,10.0,NNW,11.5,-,N/A,,Clear,340,2011-10-19 02:55:00
10:15 PM,36.9,18.1,47,30.07,10.0,NNW,10.4,-,N/A,,Clear,340,2011-10-19 03:15:00
10:35 PM,36.1,18.1,48,30.07,10.0,NNW,11.5,16.1,N/A,,Clear,340,2011-10-19 03:35:00
11:15 PM,35.6,18.0,49,30.07,10.0,NNW,11.5,-,N/A,,Clear,340,2011-10-19 04:15:00
11:35 PM,35.6,18.0,49,30.06,10.0,NNW,12.7,-,N/A,,Clear,340,2011-10-19 04:35:00
11:55 PM,35.1,18.1,50,30.06,10.0,NNW,11.5,-,N/A,,Clear,340,2011-10-19 04:55:00